This demonstration page uses our WeatherBlox Daily Observations layout. Learn more.

Hourly Observations for December 13, 2016

Temp ( °F °C ) Dew Point ( °F °C ) Humidity (%) Winds ( mph kmh ) Pressure ( in mb ) Visibility ( mi km ) Precip ( " mm )
12:54 am 00:54 Clear 12 -11.1 4 -15.6 70 70 N 16 26 30.27 1025 10 16.0934 0 0
1:54 am 01:54 Clear 11 -11.7 4 -15.6 73 73 N 12 19 30.29 1026 10 16.0934 0 0
2:54 am 02:54 Clear 11 -11.7 3 -16.1 70 70 N 20 31 30.28 1025 10 16.0934 0 0
3:54 am 03:54 Clear 11 -11.7 2 -16.7 67 67 N 16 26 30.31 1027 10 16.0934 0 0
4:54 am 04:54 Clear 10 -12.2 2 -16.7 69 69 N 17 28 30.32 1027 10 16.0934 0 0
5:54 am 05:54 Clear 8 -13.3 -1 -18.3 66 66 N 18 30 30.34 1028 10 16.0934 0 0
6:54 am 06:54 Mostly Cloudy 8 -13.3 -2 -18.9 63 63 N 13 20 30.37 1029 10 16.0934 0 0
7:54 am 07:54 Cloudy 10 -12.2 -1 -18.3 61 61 N 12 19 30.41 1030 10 16.0934 0 0
8:54 am 08:54 Cloudy 12 -11.1 0 -17.8 58 58 N 10 17 30.44 1031 10 16.0934 0 0
9:54 am 09:54 Cloudy 13 -10.6 2 -16.7 61 61 N 12 19 30.45 1031 10 16.0934 0 0
10:54 am 10:54 Cloudy 16 -8.9 2 -16.7 54 54 N 7 11 30.45 1031 10 16.0934 0 0
11:54 am 11:54 Mostly Cloudy 17 -8.3 1 -17.2 49 49 NNW 7 11 30.42 1030 10 16.0934 0 0
12:54 pm 12:54 Sunny 20 -6.7 0 -17.8 41 41 SSW 5 7 30.39 1029 10 16.0934 0 0
1:54 pm 13:54 Sunny 22 -5.6 0 -17.8 38 38 Calm 30.37 1028 10 16.0934 0 0
2:54 pm 14:54 Sunny 24 -4.4 -1 -18.3 33 33 Calm 30.34 1028 10 16.0934 0 0
3:54 pm 15:54 Sunny 23 -5 0 -17.8 36 36 S 5 7 30.32 1027 10 16.0934 0 0
4:54 pm 16:54 Sunny 17 -8.3 1 -17.2 49 49 S 7 11 30.32 1027 10 16.0934 0 0
5:54 pm 17:54 Clear 18 -7.8 2 -16.7 49 49 S 7 11 30.32 1027 10 16.0934 0 0
6:54 pm 18:54 Clear 13 -10.6 2 -16.7 61 61 S 7 11 30.31 1027 10 16.0934 0 0
7:54 pm 19:54 Clear 12 -11.1 2 -16.7 64 64 S 7 11 30.31 1026 10 16.0934 0 0
8:54 pm 20:54 Clear 12 -11.1 2 -16.7 64 64 S 3 6 30.31 1026 10 16.0934 0 0
9:54 pm 21:54 Cloudy 16 -8.9 4 -15.6 59 59 SSW 8 13 30.31 1027 10 16.0934 0 0
10:54 pm 22:54 Cloudy 17 -8.3 6 -14.4 62 62 S 3 6 30.31 1026 10 16.0934 0 0
11:54 pm 23:54 Cloudy 17 -8.3 7 -13.9 64 64 S 5 7 30.3 1026 10 16.0934 0 0

Powered by AerisWeather